When you browse on this site, cookies collect data to enhance your experience and personalize the content and advertising you see.
Visit our Privacy Policy to learn more. By continuing to use the site, you agree to this use of cookies and data.

Hourly Weather Tinheyri

Today, 12 August, Wednesday

Time Temperature Precipitation Wind Pressure Humidity
00:00 +7°C° 0 mm 2 mps 736 mmHg 96%
01:00 +6°C° 0 mm 2 mps 736 mmHg 96%
02:00 +6°C° 0 mm 2 mps 736 mmHg 96%
03:00 +4°C° 0 mm 3 mps 736 mmHg 95%
04:00 +4°C° 0 mm 3 mps 737 mmHg 95%
05:00 +5°C° 0 mm 3 mps 737 mmHg 88%
06:00 +5°C° 0 mm 4 mps 738 mmHg 81%
07:00 +6°C° 0 mm 4 mps 738 mmHg 75%
08:00 +7°C° 0 mm 4 mps 738 mmHg 69%
09:00 +7°C° 0 mm 5 mps 738 mmHg 63%
10:00 +8°C° 0 mm 5 mps 738 mmHg 55%
11:00 +8°C° 0 mm 5 mps 738 mmHg 56%
12:00 +9°C° 0 mm 6 mps 737 mmHg 56%
13:00 +9°C° 0 mm 7 mps 737 mmHg 57%
14:00 +8°C° 0.2 mm 7 mps 736 mmHg 65%
15:00 +6°C° 0.2 mm 7 mps 736 mmHg 74%
16:00 +5°C° 0.2 mm 7 mps 735 mmHg 83%
17:00 +5°C° 0.2 mm 7 mps 735 mmHg 86%
18:00 +5°C° 0.2 mm 8 mps 734 mmHg 88%
19:00 +6°C° 0.2 mm 8 mps 734 mmHg 91%
20:00 +6°C° 0.4 mm 8 mps 733 mmHg 92%
21:00 +6°C° 0.4 mm 8 mps 733 mmHg 93%
22:00 +7°C° 0.4 mm 8 mps 732 mmHg 95%
23:00 +7°C° 1.2 mm 8 mps 732 mmHg 95%

Tomorrow, 13 August, Thursday

Time Temperature Precipitation Wind Pressure Humidity
00:00 +7°C° 1.2 mm 8 mps 731 mmHg 96%
01:00 +8°C° 1.2 mm 7 mps 731 mmHg 96%
02:00 +8°C° 1.8 mm 7 mps 730 mmHg 96%
03:00 +9°C° 1.8 mm 7 mps 729 mmHg 96%
04:00 +9°C° 1.8 mm 7 mps 729 mmHg 96%
05:00 +9°C° 2.4 mm 7 mps 728 mmHg 96%
06:00 +9°C° 2.4 mm 7 mps 728 mmHg 96%
07:00 +9°C° 2.4 mm 7 mps 727 mmHg 96%
08:00 +9°C° 1 mm 7 mps 727 mmHg 96%
09:00 +9°C° 1 mm 7 mps 726 mmHg 96%
10:00 +9°C° 1 mm 7 mps 726 mmHg 96%
11:00 +9°C° 0.1 mm 7 mps 726 mmHg 95%
12:00 +9°C° 0.1 mm 7 mps 726 mmHg 93%
13:00 +9°C° 0.1 mm 7 mps 726 mmHg 92%
14:00 +9°C° 0 mm 8 mps 725 mmHg 88%
15:00 +9°C° 0 mm 8 mps 725 mmHg 85%
16:00 +7°C° 0 mm 8 mps 725 mmHg 82%
17:00 +7°C° 0 mm 8 mps 725 mmHg 83%
18:00 +6°C° 0 mm 8 mps 725 mmHg 85%
19:00 +5°C° 0 mm 8 mps 725 mmHg 87%
20:00 +5°C° 0 mm 8 mps 725 mmHg 87%
21:00 +4°C° 0 mm 7 mps 725 mmHg 86%
22:00 +4°C° 0 mm 7 mps 725 mmHg 86%
23:00 +4°C° 0 mm 7 mps 725 mmHg 85%

Day after tomorrow, 14 August, Friday

Time Temperature Precipitation Wind Pressure Humidity
00:00 +3°C° 0 mm 7 mps 725 mmHg 85%
01:00 +3°C° 0 mm 6 mps 725 mmHg 84%
02:00 +3°C° 0 mm 6 mps 725 mmHg 85%
03:00 +3°C° 0 mm 6 mps 725 mmHg 86%
04:00 +3°C° 0 mm 7 mps 725 mmHg 87%
05:00 +4°C° 0 mm 6 mps 725 mmHg 83%
06:00 +5°C° 0 mm 6 mps 726 mmHg 78%
07:00 +7°C° 0 mm 6 mps 726 mmHg 74%
08:00 +8°C° 0 mm 6 mps 726 mmHg 69%
09:00 +8°C° 0 mm 6 mps 726 mmHg 63%
10:00 +9°C° 0 mm 6 mps 727 mmHg 58%
11:00 +9°C° 0 mm 7 mps 727 mmHg 56%
12:00 +10°C° 0 mm 7 mps 727 mmHg 53%
13:00 +10°C° 0 mm 7 mps 727 mmHg 51%
14:00 +10°C° 0 mm 7 mps 727 mmHg 53%
15:00 +10°C° 0 mm 7 mps 728 mmHg 54%
16:00 +10°C° 0 mm 7 mps 728 mmHg 56%
17:00 +9°C° 0 mm 6 mps 728 mmHg 60%
18:00 +9°C° 0 mm 5 mps 728 mmHg 64%
19:00 +8°C° 0 mm 5 mps 728 mmHg 69%
20:00 +7°C° 0 mm 4 mps 728 mmHg 71%
21:00 +7°C° 0 mm 4 mps 728 mmHg 74%
22:00 +7°C° 0 mm 4 mps 728 mmHg 76%
23:00 +8°C° 0 mm 3 mps 728 mmHg 72%

15 August, Saturday

Time Temperature Precipitation Wind Pressure Humidity
00:00 +8°C° 0 mm 3 mps 728 mmHg 68%
01:00 +9°C° 0 mm 2 mps 728 mmHg 64%
02:00 +8°C° 0.9 mm 2 mps 728 mmHg 71%
03:00 +8°C° 0.9 mm 2 mps 728 mmHg 78%
04:00 +7°C° 0.9 mm 3 mps 728 mmHg 85%
05:00 +7°C° 0.8 mm 3 mps 728 mmHg 87%
06:00 +8°C° 0.8 mm 3 mps 729 mmHg 90%
07:00 +8°C° 0.8 mm 3 mps 729 mmHg 93%
08:00 +8°C° 0.3 mm 4 mps 730 mmHg 93%
09:00 +10°C° 0.3 mm 4 mps 730 mmHg 93%
10:00 +11°C° 0.3 mm 4 mps 730 mmHg 93%
11:00 +11°C° 0.8 mm 4 mps 731 mmHg 94%
12:00 +11°C° 0.8 mm 4 mps 731 mmHg 94%
13:00 +11°C° 0.8 mm 4 mps 731 mmHg 95%
14:00 +11°C° 0 mm 4 mps 732 mmHg 92%
15:00 +10°C° 0 mm 5 mps 732 mmHg 89%
16:00 +12°C° 0 mm 5 mps 732 mmHg 87%
17:00 +10°C° 0 mm 5 mps 732 mmHg 88%
18:00 +11°C° 0 mm 4 mps 733 mmHg 90%
19:00 +10°C° 0 mm 4 mps 733 mmHg 91%
20:00 +10°C° 0 mm 4 mps 733 mmHg 91%
21:00 +8°C° 0 mm 4 mps 733 mmHg 90%
22:00 +8°C° 0 mm 4 mps 734 mmHg 90%
23:00 +8°C° 0 mm 4 mps 734 mmHg 91%

16 August, Sunday

Time Temperature Precipitation Wind Pressure Humidity
00:00 +8°C° 0 mm 4 mps 734 mmHg 91%
01:00 +9°C° 0 mm 3 mps 734 mmHg 92%
02:00 +9°C° 0 mm 3 mps 734 mmHg 91%
03:00 +9°C° 0 mm 3 mps 734 mmHg 90%
04:00 +9°C° 0 mm 3 mps 734 mmHg 89%
05:00 +10°C° 0 mm 3 mps 735 mmHg 84%
06:00 +10°C° 0 mm 3 mps 735 mmHg 80%
07:00 +11°C° 0 mm 3 mps 735 mmHg 75%
08:00 +12°C° 0 mm 3 mps 736 mmHg 70%
09:00 +14°C° 0 mm 2 mps 736 mmHg 66%
10:00 +15°C° 0 mm 2 mps 736 mmHg 61%
11:00 +15°C° 0 mm 2 mps 736 mmHg 59%
12:00 +16°C° 0 mm 2 mps 736 mmHg 57%
13:00 +16°C° 0 mm 2 mps 736 mmHg 55%
14:00 +16°C° 0 mm 1 mps 736 mmHg 56%
15:00 +16°C° 0 mm 1 mps 736 mmHg 56%
16:00 +16°C° 0 mm 1 mps 736 mmHg 57%
17:00 +15°C° 0 mm 1 mps 736 mmHg 63%
18:00 +15°C° 0 mm 1 mps 736 mmHg 70%
19:00 +14°C° 0 mm 1 mps 736 mmHg 76%
20:00 +12°C° 0 mm 0 mps 736 mmHg 77%
21:00 +12°C° 0 mm 0 mps 736 mmHg 78%
22:00 +11°C° 0 mm 0 mps 736 mmHg 78%
23:00 +11°C° 0 mm 0 mps 736 mmHg 79%

17 August, Monday

Time Temperature Precipitation Wind Pressure Humidity
00:00 +10°C° 0 mm 0 mps 736 mmHg 80%
01:00 +10°C° 0 mm 0 mps 736 mmHg 81%
02:00 +10°C° 0 mm 0 mps 736 mmHg 81%
03:00 +10°C° 0 mm 0 mps 736 mmHg 82%
04:00 +10°C° 0 mm 0 mps 736 mmHg 82%
05:00 +12°C° 0 mm 1 mps 736 mmHg 77%
06:00 +13°C° 0 mm 1 mps 736 mmHg 73%
07:00 +14°C° 0 mm 1 mps 736 mmHg 68%
08:00 +15°C° 0 mm 1 mps 736 mmHg 67%
09:00 +15°C° 0 mm 1 mps 736 mmHg 66%
10:00 +16°C° 0 mm 1 mps 736 mmHg 65%
11:00 +16°C° 0 mm 2 mps 736 mmHg 65%
12:00 +16°C° 0 mm 2 mps 736 mmHg 66%
13:00 +16°C° 0 mm 2 mps 736 mmHg 67%
14:00 +16°C° 0 mm 2 mps 736 mmHg 68%
15:00 +16°C° 0 mm 2 mps 736 mmHg 69%
16:00 +16°C° 0 mm 2 mps 736 mmHg 70%
17:00 +15°C° 0 mm 2 mps 736 mmHg 73%
18:00 +14°C° 0 mm 2 mps 736 mmHg 77%
19:00 +13°C° 0 mm 2 mps 736 mmHg 81%
20:00 +13°C° 0 mm 2 mps 736 mmHg 83%
21:00 +12°C° 0 mm 2 mps 736 mmHg 85%
22:00 +10°C° 0 mm 2 mps 736 mmHg 87%
23:00 +10°C° 0 mm 2 mps 735 mmHg 87%
Show more